Milton, FL

6:49 PM CST on December 19, 2014 (GMT -0600)
Milton, FL | Change Station
CLOSE
Current Station
Personal Weather Station
Location: Milton, FL
Elevation: 170 ft
Nearby Weather Stations

Elev 170 ft 30.65 °N, 87.06 °W | Updated 6 seconds ago

Rain
Rain
49.1 °F
Feels Like 49 °F
N
0.0
Wind Variable Wind from East
Gusts 0.0 mph

Today
High -- | Low -- °F
--% Chance of Precip.
Yesterday
High -- | Low -- °F
Precip. -- in
6:40 AM 4:50 PM
Waning Crescent, 5% visible
Pressure 30.13 in
Visibility 9.0 miles
Clouds Mostly Cloudy 2600 ft
Mostly Cloudy 5000 ft
Overcast 8500 ft
Windchill 49 °F
Dew Point 48 °F
Humidity 96%
Rainfall 0.38 in
Snow Depth Not available.
UV 0 out of 12
Pollen 1.40 out of 12
Air Quality Not available.
Flu Activity Not available.
SPECI KNDZ 200020Z 03004KT 9SM BKN026 BKN050 OVC085 11/08 A3013 RMK AO2 T01060083 $

More Conditions Fewer Conditions

Pressure 30.13 in
Visibility 9.0 miles
Clouds Mostly Cloudy 2600 ft
Mostly Cloudy 5000 ft
Overcast 8500 ft
Windchill 49 °F
Dew Point 48 °F
Humidity 96%
Rainfall 0.38 in
Snow Depth Not available.
UV 0 out of 12
Pollen 1.40 out of 12
Air Quality Not available.
Flu Activity Not available.
SPECI KNDZ 200020Z 03004KT 9SM BKN026 BKN050 OVC085 11/08 A3013 RMK AO2 T01060083 $

More Conditions Fewer Conditions

10-Day Weather Forecast

Almanac

Astronomy

Dec. 19, 2014 Rise Set
Actual Time
Civil Twilight
Nautical Twilight
Astronomical Twilight
Moon
Length of Visible Light
Length of Day
Tomorrow will be .
, % of the Moon is Illuminated

Today's Extremes

State Highs State Lows

Community

WunderPhotos

Upload Photos

1,779,093 photos uploaded!

WunderBlogs® & News

Nearby

Air Quality

  Air Quality AQ Index Pollutant
Not available.

Snow Depth

Station Depth Elevation

Earthquake Activity

City Distance Mag. Time & Date
Minimum magnitude displayed is 2.5.

Coastal Water Temperatures

Place Temperature

Nearby Weather Stations